Regional Weather Roundup
Issued by NWS State College, PA

Home | Current Version | Previous Version | Text Only | Print | Product List | Glossary Off
Versions: 1 2 3 4 5 6 7 8 9 10 11 12 13 14 15 16 17 18 19 20 21 22 23 24 25 26 27 28 29 30 31 32 33 34 35 36 37 38 39 40 41 42 43 44 45 46 47 48 49 50

000
ASUS41 KCTP 271003
RWRCTP

REGIONAL WEATHER ROUNDUP
NATIONAL WEATHER SERVICE STATE COLLEGE PA
600 AM EDT SAT AUG 27 2016

Note: "fair" indicates few or no clouds below 12,000 feet with no
significant weather and/or obstructions to visibility.

* = STATION THAT DOES NOT REPORT PRECIPITATION /E.G. RAIN...SNOW...ETC/
    THUNDER OR FOG.

PAZ002>004-007>009-013>016-020>023-029>032-271100-
WESTERN PENNSYLVANIA

CITY           SKY/WX    TMP DP  RH WIND       PRES   REMARKS
ERIE           PTCLDY    66  63  90 CALM      30.19R
MEADVILLE      PTCLDY    62  58  86 CALM      30.22R
FRANKLIN*        N/A     59  57  94 NE3       30.23R VSB 3/4
NEW CASTLE     FAIR      61  60  97 NE3       30.20S
BEAVER COUNTY  NOT AVBL
BUTLER*        NOT AVBL
PITTSBURGH INT PTCLDY    67  61  81 VRB3      30.18S
PITTSBURGH     CLEAR     68  62  81 NE3       30.18S
INDIANA*       CLEAR     63  61  94 CALM      30.24S
LATROBE        CLEAR     63  63 100 N3        30.21R
WASHINGTON CO*   N/A     63  59  88 CALM      30.19S VSB 1/2
$$

PAZ004>006-010>012-017>019-024>028-033>037-041-042-045-046-049>053-271100-
CENTRAL PENNSYLVANIA

CITY           SKY/WX    TMP DP  RH WIND       PRES   REMARKS
BRADFORD       CLEAR     53  53 100 CALM      30.25R
DUBOIS         FOG       60  58  92 NE3       30.23R VSB 1/2
CLEARFIELD     CLEAR     59  59 100 N3        30.23S
JOHNSTOWN      CLEAR     63  61  93 CALM      30.25R
ALTOONA        CLEAR     59  59 100 CALM      30.23R
STATE COLLEGE  CLEAR     63  63 100 CALM      30.22R
WILLIAMSPORT   CLEAR     65  62  90 CALM      30.19R
SELINSGROVE    CLEAR     62  62 100 CALM      30.19R FOG
FT INDIANTOWN  CLEAR     65  65  99 CALM      30.17R
CAPITAL CITY   CLEAR     68  64  87 SW3       30.16R
HARRISBURG     PTCLDY    70  69  97 N5        30.15R
YORK           CLEAR     62  61  96 CALM      30.17R
$$

PAZ038>040-043-044-047-048-054-055-060>062-067>071-271100-
EASTERN PENNSYLVANIA

CITY           SKY/WX    TMP DP  RH WIND       PRES   REMARKS
SCRANTON       CLEAR     63  61  93 E6        30.20R
MOUNT POCONO   CLEAR     62  55  77 N7        30.23R
ALLENTOWN      CLEAR     64  60  87 CALM      30.17R
QUAKERTOWN*    SUNNY     63  61  94 CALM      30.18R
READING        CLEAR     67  64  90 CALM      30.16R
LANCASTER      CLEAR     67  66  97 CALM      30.16R
COATESVILLE    SUNNY     70  63  78 N3        30.18R
POTTSTOWN      CLEAR     64  64 100 CALM      30.18R
BLUE BELL      CLEAR     61  61 100 CALM      30.15R
DOYLESTOWN     CLEAR     68  64  87 CALM      30.15R
WILLOW GROVE   NOT AVBL
NORTH PHILA    CLEAR     71  64  78 NE3       30.15R
PHILADELPHIA   CLEAR     74  64  71 N7        30.14R
$$



USA.gov is the U.S. government's official web portal to all federal, state and local government web resources and services.